DW0333 Tranby-Lier NO current weather conditions

sailwx.info

Wind from 263 at 6 knots

Air temperature 6.7° C
Dewpoint 0.6° C

Last reported at 2016-Dec-04 17:46 UTC.
Time now 2016-Dec-04 18:27 UTC

Location: N 59°50' E 010°17'.
View on Google Maps.

See reports from other nearby stations

  
Tides and Currents Weather Stations Pressure Air Temp Water Temp Dewpoint Dewpoint Depression Visibility Wind Speed Wind Dir Waves Ship Positions
date/time (UTC)wind fromknots sea level pressurealtimeterstation pressurevisibilityair tempwater tempwave heightnotes
2016-Dec-04 17:46 263 6 6.7
2016-Dec-04 17:31 257 6 6.7
2016-Dec-04 17:16 275 7 6.7
2016-Dec-04 17:01 299 7 6.7
2016-Dec-04 16:43 298 5 6.7
2016-Dec-04 16:28 289 6 6.7
2016-Dec-04 16:13 254 6 6.7
2016-Dec-04 15:58 298 6 6.7
2016-Dec-04 15:43 277 6 6.7
2016-Dec-04 15:27 266 7 6.7
2016-Dec-04 15:12 268 5 6.7
2016-Dec-04 14:57 282 6 6.7
2016-Dec-04 14:41 263 6 6.7
2016-Dec-04 14:26 198 7 6.7
2016-Dec-04 14:11 294 4 6.7
2016-Dec-04 13:56 268 5 6.7
2016-Dec-04 13:41 257 6 6.7
2016-Dec-04 13:26 262 6 6.7
2016-Dec-04 13:11 290 4 6.1
2016-Dec-04 12:56 271 5 6.1
2016-Dec-04 12:39 259 5 6.1
2016-Dec-04 12:24 275 5 6.7
2016-Dec-04 12:11 280 6 6.1
2016-Dec-04 11:53 308 6 6.7
2016-Dec-04 11:38 268 7 6.7
2016-Dec-04 11:23 282 8 6.1
2016-Dec-04 11:08 293 8 6.1
2016-Dec-04 10:52 277 6 5.6
2016-Dec-04 10:37 279 6 5.0
2016-Dec-04 10:22 294 6 5.0
2016-Dec-04 10:07 280 6 5.0
2016-Dec-04 09:51 285 6 4.4
2016-Dec-04 09:36 288 6 4.4
2016-Dec-04 09:21 258 6 3.9
2016-Dec-04 09:06 288 6 3.9
2016-Dec-04 08:51 308 6 3.9
2016-Dec-04 08:36 314 6 3.9
2016-Dec-04 08:21 293 6 3.9
2016-Dec-04 08:06 304 6 3.3
2016-Dec-04 07:51 280 4 3.3
2016-Dec-04 07:34 283 5 2.8
2016-Dec-04 07:21 292 4 2.8
2016-Dec-04 07:04 293 4 2.8
2016-Dec-04 06:48 300 3 2.2
2016-Dec-04 06:33 239 2 1.7
2016-Dec-04 06:17 267 1 1.1
2016-Dec-04 06:03 276 0 1.1
2016-Dec-04 05:47 291 1 1.1
2016-Dec-04 05:31 033 0 1.1
2016-Dec-04 05:16 035 0 1.1
2016-Dec-04 05:02 035 0 1.1
2016-Dec-04 04:46 034 0 1.1
2016-Dec-04 04:32 046 1.1
2016-Dec-04 04:16 046 0 1.1
2016-Dec-04 04:02 046 0 1.7
2016-Dec-04 03:46 046 0 1.7
2016-Dec-04 03:32 014 0 1.7
2016-Dec-04 03:16 013 0 2.2
2016-Dec-04 03:02 013 1 2.2
2016-Dec-04 02:46 021 2 1.7
2016-Dec-04 02:31 021 1.1
2016-Dec-04 02:14 021 0 1.1
2016-Dec-04 01:58 021 0 0.6
2016-Dec-04 01:43 021 0 0.6
2016-Dec-04 01:28 021 1 1.1
2016-Dec-04 01:13 039 1 0.6
2016-Dec-04 00:57 039 0.6
2016-Dec-04 00:42 039 0.6
2016-Dec-04 00:27 040 0 0.6
2016-Dec-04 00:11 040 0 0.6
2016-Dec-03 23:56 040 -0.0
2016-Dec-03 23:41 040 0 0.6
2016-Dec-03 23:26 039 0 0.6
2016-Dec-03 23:11 039 1 0.6
2016-Dec-03 22:56 039 0 0.6
2016-Dec-03 22:41 039 0.6
2016-Dec-03 22:26 039 0 -0.0
2016-Dec-03 22:09 039 1 -0.0
2016-Dec-03 21:54 047 2 -0.0
2016-Dec-03 21:41 041 0.6
2016-Dec-03 21:23 038 0 0.6
2016-Dec-03 21:08 038 0 0.6
2016-Dec-03 20:53 010 1 0.6
2016-Dec-03 20:38 009 0.6
2016-Dec-03 20:23 009 0.6
2016-Dec-03 20:07 009 0.6
2016-Dec-03 19:52 009 0.6
2016-Dec-03 19:37 009 0.6
2016-Dec-03 19:22 009 0.6
2016-Dec-03 19:07 009 0.6
2016-Dec-03 18:51 009 0 0.6
2016-Dec-03 18:36 009 0 0.6
2016-Dec-03 18:21 038 -0.0
2016-Dec-03 18:06 038 0 -0.6
2016-Dec-03 17:51 035 3 -1.1
2016-Dec-03 17:36 040 3 -0.6
2016-Dec-03 17:21 042 2 0.6
2016-Dec-03 17:06 354 0 2.2
2016-Dec-03 16:49 345 1 2.2
2016-Dec-03 16:34 295 2 2.8
2016-Dec-03 16:18 287 3 2.2
2016-Dec-03 16:04 317 0 2.2
2016-Dec-03 15:48 316 0 2.2
2016-Dec-03 15:32 314 1 2.2
2016-Dec-03 15:17 304 1 2.2
2016-Dec-03 15:03 306 0 2.2
2016-Dec-03 14:47 310 1 2.2
2016-Dec-03 14:31 306 0 2.2
2016-Dec-03 14:17 315 1 1.7
2016-Dec-03 14:01 314 0 1.7
2016-Dec-03 13:46 287 0 2.2
2016-Dec-03 13:31 254 1 2.2
2016-Dec-03 13:16 308 1 2.8
2016-Dec-03 13:01 286 2 2.8
2016-Dec-03 12:46 296 2 2.2
2016-Dec-03 12:32 308 3 2.2
2016-Dec-03 12:16 322 1 2.2
2016-Dec-03 12:02 257 1 2.2
2016-Dec-03 11:46 306 2 2.2
2016-Dec-03 11:32 291 2 2.2
2016-Dec-03 11:13 296 5 2.2
2016-Dec-03 10:58 295 5 2.2
2016-Dec-03 10:43 304 5 1.7
2016-Dec-03 10:29 263 3 1.7
2016-Dec-03 10:13 269 3 1.7
2016-Dec-03 09:57 277 4 1.7
2016-Dec-03 09:42 280 3 1.7
2016-Dec-03 09:27 287 2 1.1
2016-Dec-03 09:11 265 2 1.1
2016-Dec-03 08:56 271 2 1.1
2016-Dec-03 08:41 302 3 1.1
2016-Dec-03 08:26 302 4 1.1
2016-Dec-03 08:12 276 4 0.6
2016-Dec-03 07:56 277 3 -0.0
2016-Dec-03 07:41 281 1 -0.0
2016-Dec-03 07:26 260 0 -0.0
2016-Dec-03 07:11 275 2 -0.0
2016-Dec-03 06:56 306 1 -0.0
2016-Dec-03 06:41 268 3 -0.0
2016-Dec-03 06:23 293 3 -0.0
2016-Dec-03 06:08 327 2 -0.0
2016-Dec-03 05:53 329 1 -0.0
2016-Dec-03 05:38 296 1 -0.6
2016-Dec-03 05:22 290 1 -0.6
2016-Dec-03 05:07 317 3 -0.6
2016-Dec-03 04:52 306 4 -0.6
2016-Dec-03 04:37 284 4 -0.6
2016-Dec-03 04:21 302 4 -0.6
2016-Dec-03 04:06 296 5 -1.1
2016-Dec-03 03:51 282 5 -1.1
2016-Dec-03 03:36 286 4 -1.1
2016-Dec-03 03:21 294 5 -1.1
2016-Dec-03 03:06 287 4 -1.1
2016-Dec-03 02:51 292 4 -1.1
2016-Dec-03 02:36 301 4 -1.1
2016-Dec-03 02:21 307 4 -1.1
2016-Dec-03 02:06 300 3 -1.1
2016-Dec-03 01:51 290 3 -1.1
2016-Dec-03 01:34 319 5 -1.1
2016-Dec-03 01:18 236 2 -1.1
2016-Dec-03 01:03 269 1 -1.1
2016-Dec-03 00:48 283 1 -1.1
2016-Dec-03 00:32 292 2 -1.1
2016-Dec-03 00:17 297 1 -1.1
2016-Dec-03 00:02 298 2 -1.7
2016-Dec-02 23:47 286 2 -1.7
2016-Dec-02 23:31 308 2 -1.7
2016-Dec-02 23:16 297 1 -1.7
2016-Dec-02 23:02 319 1 -1.1
2016-Dec-02 22:47 320 2 -1.1
2016-Dec-02 22:32 323 2 -1.1
2016-Dec-02 22:16 323 2 -1.1
2016-Dec-02 22:02 323 1 -1.1
2016-Dec-02 21:46 348 2 -0.6
2016-Dec-02 21:29 316 2 -0.6
2016-Dec-02 21:16 350 2 -0.6
2016-Dec-02 21:02 350 1 -0.6
2016-Dec-02 20:44 286 2 -0.6
2016-Dec-02 20:28 323 2 -0.6
2016-Dec-02 20:13 007 2 -1.1
2016-Dec-02 19:58 328 2 -1.7
2016-Dec-02 19:42 300 1 -1.7
2016-Dec-02 19:27 314 1 -1.7
2016-Dec-02 19:12 302 1 -1.7
2016-Dec-02 18:57 292 0 -1.7
2016-Dec-02 18:42 292 0 -1.1
2016-Dec-02 18:26 286 0 -1.1
2016-Dec-02 18:11 270 0 -0.6